Weather History for KEVV - May, 2013

Change the Weather History Date:

Monday, May 6, 2013

  Actual Average Record
Temperature  
Mean Temperature 60 °F 63 °F  
Max Temperature 68 °F 74 °F 91 °F (1949)
Min Temperature 52 °F 51 °F 34 °F (1944)
Degree Days  
Heating Degree Days 5 4  
Month to date heating degree days 31 27  
Since 1 July heating degree days 4479 4482  
Cooling Degree Days 0 2  
Month to date cooling degree days 7 9  
Year to date cooling degree days 41 36  
Growing Degree Days 10 (Base 50)    
Moisture  
Dew Point 52 °F    
Average Humidity 80    
Maximum Humidity 93    
Minimum Humidity 67    
Precipitation  
Precipitation 0.05 in 0.17 in 1.84 in (1908)
Month to date precipitation 1.76 1.03  
Year to date precipitation 19.23 15.91  
Snow  
Snow 0.00 in 0.00 in - ()
Month to date snowfall 0.0 0.0  
Since 1 July snowfall 12.3 11.8  
Snow Depth 0.00 in    
Sea Level Pressure  
Sea Level Pressure 29.87 in    
Wind  
Wind Speed 7 mph (NNE)    
Max Wind Speed 15 mph    
Max Gust Speed 20 mph    
Visibility 9 miles    
Events Rain    
T = Trace of Precipitation, MM = Missing Value Source: NWS Daily Summary

Daily Weather History Graph

Daily Weather History Graph

Search for Another Location

Airport or City:

Trip Planner

Search our weather history database for the weather conditions in past years. The results will help you decide how hot, cold, wet, or windy it might be!

Date:

Astronomy

May. 06, 2013 Rise Set
Actual Time 5:48 AM CDT 7:45 PM CDT
Civil Twilight 5:19 AM CDT 8:14 PM CDT
Nautical Twilight 4:44 AM CDT 8:49 PM CDT
Astronomical Twilight 4:06 AM CDT 9:27 PM CDT
Moon 3:46 AM CDT (5/6) 4:48 PM CDT (5/6)
Length of Visible Light 14h 55m
Length of Day
13h 57m
Waning Crescent, 11% of the Moon is Illuminated
May 6
Waning Crescent
May 9
New
May 17
First Quarter
May 24
Full
May 31
Last Quarter

Hourly Weather History & Observations

Time (CDT) Temp. Dew Point Humidity Pressure Visibility Wind Dir Wind Speed Gust Speed Precip Events Conditions
12:34 AM 53.6 °F 48.2 °F 82% 29.86 in 10.0 mi NNE 6.9 mph - N/A   Overcast
12:54 AM 53.1 °F 48.9 °F 86% 29.86 in 10.0 mi NE 9.2 mph - N/A   Overcast
1:15 AM 51.8 °F 48.2 °F 88% 29.85 in 10.0 mi NNE 6.9 mph - N/A   Overcast
1:54 AM 53.1 °F 48.9 °F 86% 29.84 in 10.0 mi NNE 8.1 mph - N/A   Overcast
2:00 AM 53.6 °F 48.2 °F 82% 29.84 in 10.0 mi NNE 6.9 mph - N/A   Overcast
2:50 AM 53.6 °F 50.0 °F 88% 29.84 in 10.0 mi NNE 8.1 mph - N/A   Overcast
2:54 AM 54.0 °F 50.0 °F 86% 29.83 in 10.0 mi NNE 8.1 mph - N/A   Overcast
3:49 AM 53.6 °F 50.0 °F 88% 29.84 in 10.0 mi North 5.8 mph - N/A   Overcast
3:54 AM 54.0 °F 50.0 °F 86% 29.84 in 10.0 mi North 8.1 mph - N/A   Overcast
4:03 AM 53.6 °F 50.0 °F 88% 29.84 in 10.0 mi North 6.9 mph - N/A   Overcast
4:54 AM 54.0 °F 51.1 °F 90% 29.84 in 3.0 mi North 6.9 mph - 0.03 in Rain Light Rain
5:05 AM 53.6 °F 51.8 °F 94% 29.84 in 10.0 mi North 8.1 mph - 0.00 in Rain Light Rain
5:12 AM 53.6 °F 51.8 °F 94% 29.84 in 8.0 mi North 6.9 mph - 0.00 in Rain Light Rain
5:39 AM 53.6 °F 51.8 °F 94% 29.85 in 4.0 mi NNE 5.8 mph - 0.00 in Rain Rain
5:52 AM 53.6 °F 51.8 °F 94% 29.85 in 6.0 mi North 6.9 mph - 0.01 in Rain Light Rain
5:54 AM 54.0 °F 51.1 °F 90% 29.85 in 6.0 mi North 6.9 mph - 0.01 in Rain Light Rain
6:54 AM 55.0 °F 52.0 °F 89% 29.87 in 9.0 mi North 6.9 mph - 0.01 in   Overcast
7:54 AM 55.9 °F 53.1 °F 90% 29.87 in 9.0 mi North 5.8 mph - 0.00 in   Overcast
8:54 AM 57.0 °F 53.1 °F 87% 29.88 in 6.0 mi NNE 9.2 mph - N/A   Overcast
9:54 AM 60.1 °F 54.0 °F 80% 29.88 in 10.0 mi NNE 12.7 mph 16.1 mph N/A   Overcast
10:54 AM 60.1 °F 54.0 °F 80% 29.90 in 10.0 mi NNE 10.4 mph - N/A   Overcast
11:54 AM 64.0 °F 54.0 °F 70% 29.89 in 10.0 mi NNE 8.1 mph - N/A   Overcast
12:15 PM 62.6 °F 53.6 °F 72% 29.90 in 10.0 mi NNE 9.2 mph - N/A   Overcast
12:47 PM 64.4 °F 53.6 °F 68% 29.90 in 10.0 mi NE 11.5 mph - N/A   Overcast
12:54 PM 64.0 °F 54.0 °F 70% 29.89 in 10.0 mi NE 11.5 mph - N/A   Overcast
1:54 PM 66.9 °F 55.0 °F 66% 29.88 in 10.0 mi NNE 10.4 mph - N/A   Mostly Cloudy
2:54 PM 64.0 °F 53.1 °F 67% 29.88 in 10.0 mi NNE 11.5 mph - N/A   Overcast
3:54 PM 64.9 °F 53.1 °F 65% 29.87 in 10.0 mi NE 8.1 mph - N/A   Overcast
4:54 PM 64.0 °F 53.1 °F 67% 29.87 in 10.0 mi NE 6.9 mph - N/A   Overcast
5:54 PM 62.1 °F 53.1 °F 72% 29.89 in 10.0 mi NNE 8.1 mph - 0.00 in Rain Light Rain
6:54 PM 60.1 °F 54.0 °F 80% 29.89 in 10.0 mi NW 5.8 mph - 0.00 in   Overcast
7:54 PM 57.9 °F 53.1 °F 84% 29.91 in 10.0 mi NNW 3.5 mph - N/A   Mostly Cloudy
8:54 PM 57.9 °F 54.0 °F 87% 29.93 in 10.0 mi Calm Calm - N/A   Scattered Clouds
9:54 PM 55.9 °F 52.0 °F 87% 29.94 in 10.0 mi Calm Calm - N/A   Scattered Clouds
10:54 PM 57.9 °F 54.0 °F 87% 29.93 in 10.0 mi North 5.8 mph - N/A   Scattered Clouds
11:54 PM 57.0 °F 53.1 °F 87% 29.94 in 10.0 mi NNE 5.8 mph - N/A   Clear